Simultaneous Nadir Overpasses (SNOs) Predictions

Prediction of SNOs between AQUA and NOAA-19 Satellite Orbit:

Table of predicted SNOs for the next 14.0 days since TLE Epoch: 6/3/2023
Index Date (AQUA) Time (AQUA) Lat,Lon (AQUA) SZA (AQUA ) Date (NOAA-19) Time (NOAA-19) Lat,Lon (NOAA-19) SZA (NOAA-19 ) Distance(km) Time Diff (sec)
1 06/04/2023 07:28:59 76.49, 57.97 54.20 06/04/2023 07:28:39 76.49, 57.91 54.21 1.49 20
2 06/04/2023 08:18:24 -76.55,-134.60 125.74 06/04/2023 08:19:37 -76.58,-134.45 125.72 5.32 73
3 06/06/2023 12:11:10 76.48, -12.52 53.95 06/06/2023 12:10:10 76.49, -12.40 53.97 3.35 60
4 06/06/2023 13:00:35 -76.54, 154.92 125.99 06/06/2023 13:01:09 -76.52, 154.97 126.02 2.67 34
5 06/08/2023 17:42:45 -76.51, 84.51 126.23 06/08/2023 17:42:40 -76.49, 84.54 126.25 2.24 5
6 06/10/2023 22:24:54 -76.45, 14.16 126.46 06/10/2023 22:24:11 -76.45, 14.08 126.45 2.12 43
7 06/10/2023 23:14:21 76.53,-178.46 53.63 06/10/2023 23:15:10 76.51,-178.42 53.60 2.58 49
8 06/13/2023 03:06:57 -76.14, -55.32 126.95 06/13/2023 03:05:49 -76.10, -57.56 126.87 60.00 68
9 06/13/2023 03:56:30 76.51, 111.09 53.47 06/13/2023 03:56:41 76.49, 111.19 53.44 3.25 11
10 06/15/2023 08:38:38 76.47, 40.73 53.31 06/15/2023 08:38:12 76.46, 40.77 53.31 1.22 26



Historial Predications of SNOs between AQUA and NOAA-19
